User: anonymous   Login
Location: DARK SKY Beskydy - Park tmavé oblohy, www.darkskybeskydy.cz
(49.4926°N, 18.5016°E)
Time: 18:22:41
(UTC+02:00)
Language:

Courier 1B Rocket - Orbit

View from above orbital plane
View from above orbital plane
View from above satellite
View from above satellite

Ground track
Ground track

The orbit data is extracted from the following two-line orbital elements,

1 00059U 60013B   24206.83504055  .00000130  00000-0  52320-4 0  9998
2 00059  28.2508  80.9253 0189103 263.1963  94.7032 13.53081082149325
Epoch (UTC): 24 July 2024 20:02:27
Eccentricity: 0.0189103
inclination: 28.2508°
perigee height: 920 km
apogee height: 1201 km
right ascension of ascending node: 80.9253°
argument of perigee: 263.1963°
revolutions per day: 13.53081082
mean anomaly at epoch: 94.7032°
orbit number at epoch: 14932

The dashed part of the orbit path shows where the satellite is in the earth's shadow,  

DLR